{"data":{"norad_id":57983,"epoch":"2026-09-19T07:04:59.513664Z","epoch_age_seconds":241758,"freshness":"STALE","line1":"1 57983U 23151V   26262.29513326  .00010885  00000+0  40487-3 0  9990","line2":"2 57983  43.0051 340.6364 0001443 253.5381 106.5312 15.27547953165156","mean_motion":15.27547953,"eccentricity":0.0001443,"inclination_deg":43.0051,"raan_deg":340.6364,"arg_perigee_deg":253.5381,"mean_anomaly_deg":106.5312,"bstar":0.00040487,"rev_number":16515,"period_min":94.26872637104,"perigee_km":482.15497496319,"apogee_km":484.13514096512,"semimajor_km":6861.2820579642,"source":"CELESTRAK","updated_at":"2026-09-21T09:00:33.752271Z"}}